Regional Weather Roundup
Issued by NWS

Home | Current Version | Previous Version | Text Only | Print | Product List | Glossary Off
Versions: 1 2 3 4 5 6 7 8 9 10 11 12 13 14 15 16 17 18 19 20 21 22 23 24 25 26 27 28 29 30 31 32 33 34 35 36 37 38 39 40 41 42 43 44 45 46 47 48 49 50

000
ASUS43 KLOT 301510
RWRIL

ILLINOIS REGIONAL WEATHER ROUNDUP
NATIONAL WEATHER SERVICE CHICAGO/ROMEOVILLE IL
1000 AM CDT THU OCT 30 2014

NOTE: "FAIR" INDICATES FEW OR NO CLOUDS BELOW 12,000 FEET WITH NO
SIGNIFICANT WEATHER AND/OR OBSTRUCTIONS TO VISIBILITY.

* THESE STATIONS ARE NOT UNDER NWS QUALITY CONTROL. THEY ALSO MAY NOT
  REPORT WEATHER SUCH AS PRECIPITATION OR FOG.

ILZ001-002-007-009-015-016-024-301600-
NORTHWEST ILLINOIS

CITY           SKY/WX    TMP DP  RH WIND       PRES   REMARKS
MOLINE         CLOUDY    43  36  76 CALM      30.11S
STERLING*      CLOUDY    41  34  75 W3        30.13S
SAVANNA*       CLOUDY    40  36  83 CALM      30.13S
$$

ILZ003-004-008-010-011-017-018-301600-
NORTH CENTRAL ILLINOIS

CITY           SKY/WX    TMP DP  RH WIND       PRES   REMARKS
ROCKFORD       CLOUDY    40  34  79 SW3       30.13F
FREEPORT*      CLOUDY    41  36  81 CALM      30.13S
ROCHELLE*      PTSUNNY   42  37  79 S5        30.12F
DE KALB*       PTSUNNY   40  36  83 S5        30.12F
PERU*          PTSUNNY   43  37  81 S7        30.14S
$$

ILZ005-006-012>014-019>023-301600-
NORTHEAST ILLINOIS

CITY           SKY/WX    TMP DP  RH WIND       PRES   REMARKS
CHICAGO-OHARE  PTSUNNY   42  34  73 SW7       30.13F
CHICAGO-MIDWAY PTSUNNY   44  35  70 SW7       30.14F
AURORA         PTSUNNY   42  35  76 S7        30.13F
LANSING*       PTSUNNY   43  36  76 SW3       30.15F
JOLIET*        PTSUNNY   41  37  86 S3        30.14F
WAUKEGAN       PTSUNNY   43  34  70 S7        30.12F
DUPAGE AIRPORT PTSUNNY   44  36  73 S6        30.12F
WHEELING       PTSUNNY   44  34  67 S7        30.15F
MORRIS*        PTSUNNY   40  37  89 SE3       30.13F
ROMEOVILLE*    PTSUNNY   41  39  91 S5        30.13F
NORTHERLY ISL    N/A     44  33  65 SW7         N/A
$$

LMZ740>746-301600-
SOUTHERN LAKE MICHIGAN

STATION/POSITION SKY/WX   TEMP    WIND        PRES    VSBY  WAVE
                          AIR SEA DIR/SP/G                  HT/PER
                          (F)     (DEG/KT/KT) (MB)    (MI)  (FT/S)
SOUTHERN BUOY              48 53  230/ 12/ 16 1020.3S         1/ 5
WAUKEGAN HARBOR            44     230/  7/  9   N/A
HARRISON CRIB              44     200/ 10/ 12   N/A
BURNHAM HARBOR             44     180/  6/  8   N/A
CALUMET HARBOR             44     200/  5/  6 1019.5F
MICHIGAN CITY              46     190/ 11/ 13   N/A
$$

ILZ025>027-034>036-040-047-049-050-058-095>099-301600-
WEST-CENTRAL ILLINOIS

CITY           SKY/WX    TMP DP  RH WIND       PRES   REMARKS
QUINCY         LGT RAIN  45  39  79 S14       30.07F
GALESBURG*     CLOUDY    41  38  87 CALM      30.11F
MACOMB*        CLOUDY    43  38  83 S7        30.13S
JACKSONVILLE*  MOSUNNY   50  39  66 S10       30.13S
PITTSFIELD*    PTSUNNY   48  40  74 S5        30.13S
$$

ILZ028>032-037-038-041>044-048-051>054-059>061-301600-
CENTRAL ILLINOIS

CITY           SKY/WX    TMP DP  RH WIND       PRES   REMARKS
PONTIAC        MOSUNNY   44  38  78 S7        30.15F
BLOOMINGTON    MOSUNNY   43  38  82 S12       30.15S
DECATUR        MOSUNNY   46  37  71 S9        30.16S
PEORIA         CLOUDY    46  38  73 S8        30.13F
LACON*         MOSUNNY   44  35  72 SW6       30.13S
LINCOLN*       MOSUNNY   46  38  74 S7        30.14F
SPRINGFIELD    MOSUNNY   49  39  68 S10       30.14F
TAYLORVILLE    MOSUNNY   46  37  71 SE8       30.14F
$$

ILZ033-039-045-046-055>057-062-063-301600-
EAST-CENTRAL ILLINOIS

CITY           SKY/WX    TMP DP  RH WIND       PRES   REMARKS
CHAMPAIGN      PTSUNNY   46  37  71 S8        30.15F
DANVILLE*      MOSUNNY   44  35  71 S3        30.14S
RANTOUL*       PTSUNNY   46  37  71 S6        30.15F
MATTOON        MOSUNNY   46  36  68 S9        30.15F
PARIS*         SUNNY     47  37  67 S6        30.18S
$$

ILZ079-100>102-301600-
SOUTHWEST ILLINOIS

CITY           SKY/WX    TMP DP  RH WIND       PRES   REMARKS
ALTON          PTSUNNY   46  41  81 SE7       30.15S
BELLEVILLE     MOSUNNY   49  42  78 S7        30.15S
CAHOKIA*       PTSUNNY   49  40  71 S8        30.15S
SPARTA*        SUNNY     47  40  74 S7        30.16F
$$

ILZ064>066-069>071-074>076-080>082-084>086-088>090-092>094-301600-
SOUTH-CENTRAL ILLINOIS

CITY           SKY/WX    TMP DP  RH WIND       PRES   REMARKS
CARBONDALE     SUNNY     48  40  73 S5        30.17F
CAIRO*         SUNNY     52  47  83 SE5       30.18S
EFFINGHAM*     SUNNY     46  34  62 SE6       30.17S
MARION         SUNNY     50  41  71 SE6       30.18F
MT. VERNON     SUNNY     48  37  66 SE7       30.18S
CENTRALIA*     MOSUNNY   50  38  63 S9        30.16S
SALEM*         SUNNY     50  40  69 S7        30.17S
METROPOLIS*    SUNNY     50  43  76 CALM      30.17F
$$

ILZ067-068-072-073-078-083-087-091-301600-
SOUTHEAST ILLINOIS

CITY           SKY/WX    TMP DP  RH WIND       PRES   REMARKS
LAWRENCEVILLE  SUNNY     47  32  56 CALM      30.19S
FLORA*         SUNNY     47  37  68 SE8       30.17F
FAIRFIELD*     SUNNY     49  39  67 SE5       30.17F
HARRISBURG*    SUNNY     47  43  84 SE5       30.19F
ROBINSON*      SUNNY     47  41  80 CALM      30.19F
CARMI*         SUNNY     49  43  78 SE3       30.18S
$$

ABBREVIATIONS USED IN REMARKS
   TC - TEMPERATURE IN CELSIUS
  WCI - WIND CHILL INDEX
   HX - HEAT INDEX
  VSB - VISIBILITY
$$




USA.gov is the U.S. government's official web portal to all federal, state and local government web resources and services.